Location: A�t �Alizem
(31.2076°N, 8.7872°W)
Time: 17:12:47
(UTC+00:00)

deb Explorer IX - Pass Details

Date: 30 June 2021
Orbit: 542 x 1234 km, 38.9° (Epoch: 23 July)

Event Time Altitude Azimuth Distance (km) Brightness Sun altitude
Rises 22:15:10 0° 275° (W) 2,687 ? -25.7°
Reaches altitude 10° 22:17:31 10° 286° (WNW) 1,811 ? -26.0°
Maximum altitude 22:21:14 33° 351° (N) 974 ? -26.4°
Enters shadow 22:23:25 21° 40° (NE) 1,356 ? -26.7°
